Track STARLINK-1134 now! 10-day predictions STARLINK-1134 is classified as:
1 45048U 20006E 22138.48953627 .00001656 00000-0 13005-3 0 9999 2 45048 53.0548 51.9501 0001664 65.4750 294.6413 15.06406548126774